Home > Weather > Gjøvik > Past weeks

Flag for Norway Weather for the Past 2 Weeks in Gjøvik, Norway

Now
38 °F

Chilly.


Feels Like: 34 °F
Forecast: 29 / 35 °F
Wind: 5 mph from Southeast

Location: Lillehammer-Saetherengen

Current Time: Feb 8, 2016 at 1:55:00 AM

Latest Report: Feb 7, 2016 at 11:00 PM


Visibility: N/A

Pressure: 29.00 "Hg

Humidity: 81%

Dew point: 33 °F

Location of GjøvikLocation

Historic Weather in Gjøvik — Graph

°F

Gjøvik Temperature Yesterday

Maximum temperature yesterday: 40 °F (at 10:00 AM)
Minimum temperature yesterday: 31 °F (at 3:00 AM)
Average temperature yesterday: 37 °F

High & Low Weather Summary for the Past Weeks

 TemperatureHumidityPressure
High41 °F (Jan 29, 4:00 PM)98% (Jan 28, 1:00 AM)30.22 "Hg (Jan 28, 1:00 AM)
Low12 °F (Feb 1, 7:00 AM)50% (Jan 30, 4:00 PM)28.73 "Hg (Jan 29, 4:00 PM)
Average27 °F87%29.40 "Hg
* Reported Jan 23 11:00 PM — Feb 7 11:00 PM, Gjøvik, Weather by CustomWeather, © 2016

Note: Actual official high and low records may vary slightly from our data, if they occured in-between our weather recording intervals... More about our weather records

Advertising

Gjøvik Weather History for the Previous 24 Hours

 ConditionsComfort  
Time TempWeatherWind HumidityBarometerVisibility
11:00 PM
Sun, Feb 7
38 °FChilly.5 mph81%29.00 "HgN/A
10:00 PM38 °FChilly.6 mph82%29.00 "HgN/A
9:00 PM39 °FChilly.7 mph84%29.00 "HgN/A
8:00 PM39 °FChilly.6 mph88%29.00 "HgN/A
7:00 PM38 °FChilly.7 mph90%29.00 "HgN/A
6:00 PM38 °FChilly.7 mph90%29.00 "HgN/A
5:00 PM38 °FChilly.5 mph91%29.03 "HgN/A
4:00 PM38 °FChilly.5 mph92%29.06 "HgN/A
3:00 PM38 °FChilly.3 mph92%29.09 "HgN/A
2:00 PM39 °FChilly.5 mph93%29.09 "HgN/A
1:00 PM38 °FChilly.3 mph93%29.12 "HgN/A
12:00 PM39 °FChilly.6 mph93%29.15 "HgN/A
11:00 AM39 °FChilly.6 mph93%29.18 "HgN/A
10:00 AM40 °FChilly.6 mph95%29.18 "HgN/A
9:00 AM39 °FChilly.5 mph97%29.18 "HgN/A
8:00 AM34 °FChilly.No wind98%29.21 "HgN/A
7:00 AM33 °FChilly.1 mph97%29.21 "HgN/A
6:00 AM33 °FChilly.1 mph98%29.21 "HgN/A
5:00 AM32 °FChilly.1 mph97%29.23 "HgN/A
4:00 AM31 °FChilly.No wind97%29.23 "HgN/A
3:00 AM31 °FChilly.1 mph97%29.26 "HgN/A
1:00 AM32 °FChilly.1 mph97%29.32 "HgN/A
Weather by CustomWeather, © 2016

See weather overviewHow to use our weather pages